Weather History for Vicksburg, MS

Change the Weather History Date:

Monday, February 25, 2013

  Actual Average Record
Temperature  
Mean Temperature 63 °F 52 °F  
Max Temperature 72 °F 63 °F 80 °F (2000)
Min Temperature 53 °F 42 °F 22 °F (1965)
Degree Days  
Heating Degree Days 2 13  
Month to date heating degree days 328 394  
Since 1 July heating degree days 1715 1938  
Cooling Degree Days 0 0  
Month to date cooling degree days 0 0  
Year to date cooling degree days 18 3  
Growing Degree Days 12 (Base 50)    
Moisture  
Dew Point 56 °F    
Average Humidity 73    
Maximum Humidity 93    
Minimum Humidity 53    
Precipitation  
Precipitation 1.24 in 0.18 in 2.74 in (2006)
Month to date precipitation 9.55 4.72  
Year to date precipitation 22.83 9.79  
Sea Level Pressure  
Sea Level Pressure 29.56 in    
Wind  
Wind Speed 11 mph (SE)    
Max Wind Speed 32 mph    
Max Gust Speed 56 mph    
Visibility 7 miles    
Events Rain , Thunderstorm    
T = Trace of Precipitation, MM = Missing Value Source: NWS Daily Summary

Daily Weather History Graph

Daily Weather History Graph

Search for Another Location

Airport:

Trip Planner

Search our weather history database for the weather conditions in past years. The results will help you decide how hot, cold, wet, or windy it might be!

Date:

Astronomy

Feb. 25, 2013 Rise Set
Actual Time 6:35 AM CST 5:58 PM CST
Civil Twilight 6:11 AM CST 6:23 PM CST
Nautical Twilight 5:42 AM CST 6:51 PM CST
Astronomical Twilight 5:14 AM CST 7:20 PM CST
Moon 6:08 PM CST (2/25) 6:08 AM CST (2/25)
Length of Visible Light 12h 12m
Length of Day
11h 22m
Full, 100% of the Moon is Illuminated
Feb 25
Full
Feb 25
Full
Mar 4
Last Quarter
Mar 11
New
Mar 19
First Quarter

Hourly Weather History & Observations

Time (CST) Temp. Dew Point Humidity Pressure Visibility Wind Dir Wind Speed Gust Speed Precip Events Conditions
12:53 AM 57.0 °F 44.1 °F 62% 29.79 in 10.0 mi ESE 9.2 mph - 0.00 in   Mostly Cloudy
1:53 AM 55.9 °F 45.0 °F 67% 29.78 in 10.0 mi ESE 9.2 mph - N/A   Mostly Cloudy
2:53 AM 54.0 °F 45.0 °F 72% 29.73 in 10.0 mi East 8.1 mph - 0.00 in   Partly Cloudy
3:53 AM 55.0 °F 46.9 °F 74% 29.73 in 10.0 mi ESE 3.5 mph - N/A   Mostly Cloudy
4:53 AM 53.1 °F 46.0 °F 77% 29.72 in 10.0 mi East 5.8 mph - N/A   Scattered Clouds
5:09 AM 53.6 °F 46.4 °F 77% 29.70 in 10.0 mi East 5.8 mph - N/A   Mostly Cloudy
5:53 AM 54.0 °F 48.0 °F 80% 29.73 in 10.0 mi East 5.8 mph - N/A   Overcast
6:16 AM 55.4 °F 48.2 °F 77% 29.70 in 10.0 mi ESE 6.9 mph - N/A   Overcast
6:53 AM 55.0 °F 50.0 °F 83% 29.74 in 10.0 mi ESE 5.8 mph - N/A   Overcast
7:53 AM 55.9 °F 52.0 °F 87% 29.74 in 10.0 mi ESE 9.2 mph - N/A   Overcast
8:04 AM 55.4 °F 53.6 °F 94% 29.72 in 10.0 mi ESE 8.1 mph - N/A   Overcast
8:53 AM 57.0 °F 54.0 °F 89% 29.74 in 10.0 mi ESE 5.8 mph - N/A   Overcast
9:53 AM 57.9 °F 55.0 °F 90% 29.74 in 9.0 mi East 5.8 mph - N/A   Overcast
10:53 AM 61.0 °F 57.0 °F 87% 29.71 in 10.0 mi ESE 9.2 mph - 0.00 in Rain Light Rain
11:00 AM 62.6 °F 57.2 °F 82% 29.69 in 10.0 mi ESE 9.2 mph - 0.00 in   Overcast
11:21 AM 64.4 °F 59.0 °F 83% 29.67 in 10.0 mi East 6.9 mph - 0.00 in   Overcast
11:53 AM 69.1 °F 60.1 °F 73% 29.67 in 10.0 mi SE 16.1 mph 25.3 mph 0.00 in   Overcast
12:53 PM 72.0 °F 62.1 °F 71% 29.60 in 10.0 mi SE 15.0 mph - N/A   Overcast
1:04 PM 69.8 °F 60.8 °F 73% 29.57 in 10.0 mi ESE 17.3 mph 25.3 mph N/A   Overcast
1:53 PM 69.1 °F 61.0 °F 75% 29.55 in 10.0 mi SE 13.8 mph 21.9 mph N/A   Overcast
2:32 PM 68.0 °F 60.8 °F 78% 29.50 in 10.0 mi SE 12.7 mph 21.9 mph 0.00 in Rain , Thunderstorm Light Rain
2:53 PM 66.9 °F 62.1 °F 84% 29.51 in 10.0 mi SE 16.1 mph - 0.00 in Rain Light Rain
3:01 PM 66.2 °F 62.6 °F 88% 29.49 in 10.0 mi SE 17.3 mph - 0.00 in Rain , Thunderstorm Light Rain
3:15 PM 64.4 °F 60.8 °F 88% 29.52 in 0.8 mi SE 32.2 mph 56.4 mph 0.28 in Rain , Thunderstorm Heavy Thunderstorms and Rain
3:28 PM 64.4 °F 62.6 °F 94% 29.49 in 2.5 mi SE 8.1 mph - 0.43 in Rain , Thunderstorm Light Thunderstorms and Rain
3:35 PM 64.4 °F 62.6 °F 94% 29.49 in 5.0 mi SSE 6.9 mph - 0.45 in Rain , Thunderstorm Thunderstorms and Rain
3:44 PM 64.4 °F 62.6 °F 94% 29.49 in 1.8 mi SE 9.2 mph - 0.51 in Rain , Thunderstorm Heavy Rain
3:53 PM 64.0 °F 62.1 °F 93% 29.48 in 2.5 mi SE 4.6 mph - 0.55 in Rain , Thunderstorm Heavy Rain
4:00 PM 64.4 °F 62.6 °F 94% 29.44 in 5.0 mi East 10.4 mph - 0.01 in Rain , Thunderstorm Rain
4:08 PM 64.4 °F 62.6 °F 94% 29.43 in 9.0 mi ESE 10.4 mph - 0.01 in Rain Light Rain
4:53 PM 64.9 °F 62.1 °F 90% 29.47 in 5.0 mi SSE 13.8 mph 23.0 mph 0.07 in Rain Rain
5:05 PM 64.4 °F 62.6 °F 94% 29.42 in 2.5 mi SE 13.8 mph - 0.08 in Rain Heavy Rain
5:10 PM 64.4 °F 62.6 °F 94% 29.43 in 3.0 mi SE 12.7 mph 20.7 mph 0.09 in Rain Rain
5:41 PM 64.4 °F 62.6 °F 94% 29.41 in 5.0 mi ESE 10.4 mph 19.6 mph 0.14 in Rain , Thunderstorm Rain
5:53 PM 64.0 °F 62.1 °F 93% 29.41 in 6.0 mi SE 20.7 mph 27.6 mph 0.16 in Rain , Thunderstorm Light Thunderstorms and Rain
6:12 PM 64.4 °F 60.8 °F 88% 29.38 in 10.0 mi SE 20.7 mph 25.3 mph 0.00 in   Overcast
6:53 PM 64.0 °F 61.0 °F 90% 29.40 in 7.0 mi SSE 13.8 mph 25.3 mph 0.02 in Rain Rain
7:05 PM 64.4 °F 60.8 °F 88% 29.44 in 5.0 mi West 17.3 mph 28.8 mph 0.04 in Rain , Thunderstorm Heavy Rain
7:08 PM 62.6 °F 60.8 °F 94% 29.45 in 1.5 mi West 20.7 mph 29.9 mph 0.18 in Rain , Thunderstorm Heavy Rain
7:11 PM 60.8 °F 57.2 °F 88% 29.45 in 1.0 mi West 12.7 mph 29.9 mph 0.27 in Rain , Thunderstorm Heavy Rain
7:20 PM 57.2 °F 55.4 °F 94% 29.45 in 2.0 mi West 17.3 mph 26.5 mph 0.30 in Rain , Thunderstorm Heavy Thunderstorms and Rain
7:24 PM 57.2 °F 55.4 °F 94% 29.46 in 3.0 mi West 12.7 mph 26.5 mph 0.33 in Rain , Thunderstorm Thunderstorms and Rain
7:33 PM 59.0 °F 55.4 °F 88% 29.45 in 3.0 mi West 15.0 mph 20.7 mph 0.37 in Rain , Thunderstorm Light Thunderstorms and Rain
7:41 PM 57.2 °F 55.4 °F 94% 29.46 in 8.0 mi WSW 9.2 mph 20.7 mph 0.37 in Rain , Thunderstorm Light Thunderstorms and Rain
7:53 PM 57.9 °F 55.0 °F 90% 29.48 in 3.0 mi SSW 8.1 mph - 0.41 in Rain Heavy Rain
8:53 PM 55.9 °F 54.0 °F 93% 29.46 in 10.0 mi South 5.8 mph - 0.03 in   Clear
9:53 PM 57.9 °F 53.1 °F 84% 29.49 in 10.0 mi SW 8.1 mph - N/A   Clear
10:53 PM 57.0 °F 46.0 °F 67% 29.50 in 10.0 mi West 13.8 mph 18.4 mph N/A   Mostly Cloudy
11:53 PM 54.0 °F 39.0 °F 57% 29.53 in 10.0 mi West 13.8 mph 19.6 mph N/A   Partly Cloudy